Location: New Greens
(51.7702°N, 0.3379°W)
Time: 11:23:07
(UTC+00:00)

Envisat - Pass Details

Date: 26 January 2019
Orbit: 764 x 766 km, 98.1° (Epoch: 18 October)

Event Time Altitude Azimuth Distance (km) Brightness Sun altitude
Rises 19:20:08 0° 188° (S) 3,222 6.3 -24.7°
Reaches altitude 10° 19:22:35 10° 197° (SSW) 2,301 5.6 -25.1°
Maximum altitude 19:27:16 37° 264° (W) 1,182 4.4 -25.8°
Drops below altitude 10° 19:32:00 10° 332° (NNW) 2,316 5.8 -26.5°
Sets 19:34:29 0° 340° (NNW) 3,247 6.5 -26.9°
